Weather History for Flora, IL

Change the Weather History Date:

Thursday, April 11, 2013

  Actual Average (KEVV) Record (KEVV)
Temperature  
Mean Temperature 53 °F 55 °F  
Max Temperature 65 °F 66 °F 88 °F (1930)
Min Temperature 41 °F 43 °F 26 °F (1973)
Degree Days  
Heating Degree Days 12 11  
Month to date heating degree days 137  
Since 1 July heating degree days 4303  
Cooling Degree Days 0 1  
Month to date cooling degree days 3  
Year to date cooling degree days 6  
Growing Degree Days 3 (Base 50)    
Moisture  
Dew Point 50 °F    
Average Humidity 88    
Maximum Humidity 100    
Minimum Humidity 69    
Precipitation  
Precipitation 0.25 in 0.14 in 1.77 in (1944)
Month to date precipitation 1.48  
Year to date precipitation 11.99  
Snow  
Snow 0.00 in 0.00 in 0.00 in (2002)
Month to date snowfall 0.1  
Since 1 July snowfall 11.8  
Snow Depth -    
Sea Level Pressure  
Sea Level Pressure 29.68 in    
Wind  
Wind Speed 10 mph (WSW)    
Max Wind Speed 24 mph    
Max Gust Speed 31 mph    
Visibility 8 miles    
Events Rain , Thunderstorm    
T = Trace of Precipitation, MM = Missing Value Source: NWS Daily Summary

Daily Weather History Graph

Daily Weather History Graph

Search for Another Location

Airport:

Trip Planner

Search our weather history database for the weather conditions in past years. The results will help you decide how hot, cold, wet, or windy it might be!

Date:

Astronomy

Apr. 11, 2013 Rise Set
Actual Time 6:23 AM CDT 7:27 PM CDT
Civil Twilight 5:55 AM CDT 7:54 PM CDT
Nautical Twilight 5:23 AM CDT 8:26 PM CDT
Astronomical Twilight 4:49 AM CDT 9:00 PM CDT
Moon 6:55 AM CDT (4/11) 9:00 PM CDT (4/11)
Length of Visible Light 13h 58m
Length of Day
13h 03m
New Moon, 2% of the Moon is Illuminated
Apr 11
New Moon
Apr 18
First Quarter
Apr 25
Full
May 2
Last Quarter
May 9
New

Hourly Weather History & Observations

Time (CDT) Temp. Windchill Dew Point Humidity Pressure Visibility Wind Dir Wind Speed Gust Speed Precip Events Conditions
12:15 AM 59.9 °F - 59.0 °F 97% 29.78 in 5.0 mi WNW 6.9 mph - 0.06 in Rain , Thunderstorm Rain
12:35 AM 59.9 °F - 59.0 °F 97% 29.76 in 7.0 mi Calm Calm - 0.11 in Rain , Thunderstorm Rain
12:55 AM 61.0 °F - 59.2 °F 94% 29.74 in 10.0 mi SE 5.8 mph - 0.13 in Rain Light Rain
1:15 AM 59.9 °F - 59.0 °F 97% 29.69 in 10.0 mi ESE 11.5 mph - 0.02 in Rain Light Rain
1:35 AM 61.7 °F - 60.1 °F 94% 29.73 in 7.0 mi SSW 9.2 mph - 0.06 in Rain Rain
1:55 AM 63.0 °F - 61.0 °F 93% 29.71 in 7.0 mi South 24.2 mph 31.1 mph 0.11 in Rain Rain
2:15 AM 63.3 °F - 61.7 °F 94% 29.68 in 10.0 mi South 20.7 mph 27.6 mph 0.01 in Rain Light Rain
2:35 AM 63.5 °F - 61.7 °F 94% 29.67 in 10.0 mi South 15.0 mph - 0.01 in   Scattered Clouds
2:55 AM 63.7 °F - 61.0 °F 91% 29.66 in 10.0 mi South 15.0 mph 23.0 mph 0.01 in   Scattered Clouds
3:15 AM 63.7 °F - 60.8 °F 90% 29.65 in 10.0 mi South 11.5 mph - N/A   Scattered Clouds
3:35 AM 63.7 °F - 59.9 °F 87% 29.65 in 10.0 mi South 9.2 mph - N/A   Scattered Clouds
3:55 AM 63.5 °F - 59.5 °F 87% 29.62 in 10.0 mi SSE 12.7 mph - N/A   Scattered Clouds
4:15 AM 63.5 °F - 59.5 °F 87% 29.62 in 10.0 mi South 9.2 mph - N/A   Clear
4:35 AM 63.5 °F - 59.9 °F 88% 29.62 in 10.0 mi South 10.4 mph - N/A   Clear
4:55 AM 63.9 °F - 60.4 °F 89% 29.62 in 10.0 mi South 15.0 mph - N/A   Mostly Cloudy
5:15 AM 63.7 °F - 60.8 °F 90% 29.61 in 10.0 mi South 11.5 mph - N/A   Overcast
5:35 AM 63.9 °F - 61.3 °F 91% 29.61 in 10.0 mi South 15.0 mph - N/A   Mostly Cloudy
5:55 AM 65.1 °F - 62.4 °F 91% 29.61 in 10.0 mi South 17.3 mph 20.7 mph N/A   Mostly Cloudy
6:15 AM 65.3 °F - 62.6 °F 91% 29.61 in 10.0 mi South 17.3 mph - N/A   Overcast
6:35 AM 58.5 °F - 56.5 °F 93% 29.64 in 7.0 mi West 17.3 mph 21.9 mph N/A   Light Drizzle
6:55 AM 57.0 °F - 55.6 °F 95% 29.65 in 5.0 mi WSW 10.4 mph - N/A   Overcast
7:15 AM 56.5 °F - 54.9 °F 94% 29.65 in 5.0 mi West 12.7 mph 17.3 mph N/A   Overcast
7:35 AM 55.8 °F - 54.5 °F 96% 29.67 in 4.0 mi West 11.5 mph - N/A   Overcast
7:55 AM 54.9 °F - 53.8 °F 96% 29.67 in 1.5 mi West 9.2 mph - N/A   Drizzle
8:15 AM 54.5 °F - 53.6 °F 97% 29.68 in 7.0 mi West 9.2 mph - N/A   Overcast
8:35 AM 54.3 °F - 53.1 °F 95% 29.68 in 10.0 mi West 10.4 mph - N/A   Overcast
8:55 AM 53.6 °F - 52.7 °F 97% 29.68 in 1.5 mi West 10.4 mph - N/A   Overcast
9:15 AM 53.2 °F - 51.8 °F 95% 29.68 in 4.0 mi West 6.9 mph - N/A   Overcast
9:35 AM 53.2 °F - 52.0 °F 95% 29.69 in 4.0 mi West 10.4 mph - N/A   Overcast
9:55 AM 53.1 °F - 52.0 °F 96% 29.70 in 3.0 mi West 9.2 mph - N/A   Overcast
10:15 AM 53.1 °F - 51.4 °F 94% 29.70 in 10.0 mi WSW 4.6 mph - N/A   Overcast
10:35 AM 53.2 °F - 51.4 °F 94% 29.70 in 10.0 mi WSW 6.9 mph - N/A   Overcast
10:55 AM 53.2 °F - 50.9 °F 92% 29.69 in 10.0 mi West 5.8 mph - N/A   Overcast
11:15 AM 53.2 °F - 51.3 °F 93% 29.69 in 10.0 mi WSW 8.1 mph - N/A   Overcast
11:35 AM 52.9 °F - 50.5 °F 92% 29.69 in 10.0 mi West 8.1 mph - N/A   Overcast
11:55 AM 51.8 °F - 50.0 °F 94% 29.69 in 10.0 mi West 10.4 mph - N/A   Overcast
12:15 PM 51.1 °F - 49.5 °F 94% 29.70 in 7.0 mi West 9.2 mph - N/A   Overcast
12:35 PM 51.1 °F - 49.5 °F 94% 29.70 in 4.0 mi West 6.9 mph - N/A   Overcast
12:55 PM 50.0 °F - 50.0 °F 100% 29.70 in 5.0 mi West 11.5 mph - N/A   Overcast
1:15 PM 51.1 °F - 49.3 °F 94% 29.69 in 3.0 mi West 8.1 mph - N/A   Overcast
1:35 PM 50.5 °F - 49.1 °F 95% 29.68 in 3.0 mi West 8.1 mph - N/A   Overcast
1:55 PM 50.9 °F - 48.9 °F 93% 29.69 in 10.0 mi West 11.5 mph - N/A   Overcast
2:15 PM 49.3 °F - 48.0 °F 95% 29.69 in 2.5 mi West 10.4 mph - N/A   Overcast
2:35 PM 48.6 °F - 47.1 °F 95% 29.68 in 3.0 mi WNW 8.1 mph - N/A   Overcast
2:55 PM 48.7 °F - 46.6 °F 92% 29.67 in 10.0 mi West 6.9 mph - N/A   Overcast
3:15 PM 49.3 °F - 46.9 °F 92% 29.69 in 10.0 mi West 10.4 mph - N/A   Overcast
3:35 PM 49.3 °F - 46.8 °F 91% 29.67 in 4.0 mi West 8.1 mph - N/A Rain Light Rain
3:55 PM 48.6 °F - 47.3 °F 95% 29.66 in 3.0 mi West 4.6 mph - N/A   Light Drizzle
4:15 PM 49.1 °F - 47.1 °F 93% 29.67 in 10.0 mi West 8.1 mph - N/A   Overcast
4:35 PM 49.5 °F - 46.6 °F 90% 29.66 in 10.0 mi WSW 9.2 mph - N/A   Overcast
4:55 PM 49.3 °F - 46.4 °F 90% 29.66 in 10.0 mi West 6.9 mph - N/A   Overcast
5:15 PM 49.3 °F - 46.4 °F 90% 29.64 in 10.0 mi West 9.2 mph - N/A   Overcast
5:35 PM 49.6 °F - 46.2 °F 88% 29.66 in 10.0 mi WNW 15.0 mph - N/A   Overcast
5:55 PM 49.8 °F - 45.9 °F 86% 29.65 in 10.0 mi West 9.2 mph - N/A   Overcast
6:15 PM 49.5 °F - 44.6 °F 83% 29.64 in 10.0 mi WNW 16.1 mph - N/A   Overcast
6:35 PM 48.9 °F - 43.5 °F 82% 29.67 in 10.0 mi WNW 13.8 mph - N/A   Overcast
6:55 PM 48.4 °F - 42.8 °F 81% 29.67 in 10.0 mi West 13.8 mph 18.4 mph N/A   Overcast
7:15 PM 47.7 °F - 41.9 °F 80% 29.66 in 10.0 mi West 11.5 mph - N/A   Overcast
7:35 PM 47.5 °F - 40.8 °F 78% 29.66 in 10.0 mi West 12.7 mph 20.7 mph N/A   Overcast
7:55 PM 46.8 °F - 40.1 °F 78% 29.66 in 10.0 mi West 9.2 mph - N/A   Mostly Cloudy
8:15 PM 46.8 °F - 39.9 °F 77% 29.67 in 10.0 mi WNW 16.1 mph 21.9 mph N/A   Overcast
8:35 PM 46.6 °F - 38.3 °F 73% 29.69 in 10.0 mi WNW 12.7 mph 18.4 mph N/A   Overcast
8:55 PM 45.9 °F 39.7 °F 37.2 °F 72% 29.70 in 10.0 mi WNW 13.8 mph 20.7 mph N/A   Overcast
9:15 PM 44.2 °F 37.6 °F 35.2 °F 71% 29.72 in 10.0 mi West 13.8 mph 20.7 mph N/A   Overcast
9:35 PM 43.2 °F 37.4 °F 34.9 °F 73% 29.73 in 10.0 mi WNW 10.4 mph - N/A   Scattered Clouds
9:55 PM 42.3 °F 35.5 °F 34.7 °F 75% 29.73 in 10.0 mi WNW 12.7 mph - N/A   Clear
10:15 PM 41.9 °F 35.0 °F 33.4 °F 72% 29.73 in 10.0 mi WNW 12.7 mph 18.4 mph N/A   Clear
10:35 PM 41.4 °F 34.7 °F 33.1 °F 72% 29.74 in 10.0 mi WNW 11.5 mph 20.7 mph N/A   Clear
10:55 PM 41.4 °F 33.6 °F 32.2 °F 70% 29.74 in 10.0 mi West 15.0 mph 19.6 mph N/A   Scattered Clouds
11:15 PM 41.5 °F 34.2 °F 32.2 °F 69% 29.74 in 10.0 mi WNW 13.8 mph - N/A   Overcast
11:35 PM 41.5 °F 34.2 °F 32.4 °F 70% 29.74 in 10.0 mi WNW 13.8 mph 20.7 mph N/A   Overcast
11:55 PM 41.4 °F 33.6 °F 32.5 °F 71% 29.74 in 10.0 mi West 15.0 mph 21.9 mph N/A   Overcast